Zurück zum Katalog

THOR ABLESTAR DEB

AktivPO
NORAD 2620·DEBRIS·🇺🇸 United States

Gestartet Dec 5, 1963 von Vandenberg Space Force Base

Loading…

Nächste Überflüge (nächste 24 Stunden)

TLE

AktuellSource: Space-Track

Epoche: Sep 14, 2026, 11:06 UTC

1 02620U 63049H   26257.46259568  .00000185  00000-0  23601-3 0  9998
2 02620  89.9131  71.7080 0014436 186.8128 201.7569 13.59790244102522

Verfolge THOR ABLESTAR DEB in Echtzeit mit AllMySat

Download on the App Store